EW6167 Weather Reports


Display with metric or nautical units.
time (UTC)temp
F
wind
direction
speed
MPH
gust
MPH
rain 1hr
in
rain 24hr
in
rain mn
in
humidity
%
barometer
mb
20260506211059 59 336 14.0 0.0 0.00 0.00 0.00 30 1015.8
20260506210513 60 281 15.0 0.0 0.00 0.00 0.00 30 1016.0
20260506210027 60 327 14.0 0.0 0.00 0.00 0.00 30 1016.1
20260506205542 59 334 14.0 0.0 0.00 0.00 0.00 30 1016.2
20260506205101 58 327 12.0 0.0 0.00 0.00 0.00 30 1016.2
20260506204516 58 331 8.0 0.0 0.00 0.00 0.00 32 1016.2
20260506204032 58 25 7.0 0.0 0.00 0.00 0.00 32 1016.4
20260506203548 58 26 5.0 0.0 0.00 0.00 0.00 33 1016.5
20260506203059 57 69 5.0 0.0 0.00 0.00 0.00 33 1016.6
20260506202510 56 74 6.0 0.0 0.00 0.00 0.00 33 1016.7
20260506202026 57 51 4.0 0.0 0.00 0.00 0.00 32 1016.7
20260506201542 57 23 4.0 0.0 0.00 0.00 0.00 31 1016.6
20260506201057 56 360 4.0 0.0 0.00 0.00 0.00 32 1016.6
20260506200510 56 171 4.0 0.0 0.00 0.00 0.00 32 1016.8
20260506200027 55 318 5.0 0.0 0.00 0.00 0.00 32 1016.8
20260506195539 55 300 5.0 0.0 0.00 0.00 0.00 31 1016.8
20260506195057 55 260 4.0 0.0 0.00 0.00 0.00 31 1016.9
20260506194507 55 44 4.0 0.0 0.00 0.00 0.00 32 1017.1
20260506194022 55 297 4.0 0.0 0.00 0.00 0.00 32 1017.2
20260506193538 55 305 4.0 0.0 0.00 0.00 0.00 32 1017.2
20260506193055 55 57 5.0 0.0 0.00 0.00 0.00 33 1017.3
20260506192501 54 87 5.0 0.0 0.00 0.00 0.00 33 1017.4
20260506192019 54 320 6.0 0.0 0.00 0.00 0.00 32 1017.4
20260506191545 54 15 5.0 0.0 0.00 0.00 0.00 32 1017.6
20260506191107 54 50 4.0 0.0 0.00 0.00 0.00 33 1017.5
20260506190521 54 265 4.0 0.0 0.00 0.00 0.00 31 1017.7
20260506190034 53 84 5.0 0.0 0.00 0.00 0.00 32 1017.8
20260506185550 53 34 5.0 0.0 0.00 0.00 0.00 32 1017.9
20260506185104 53 42 5.0 0.0 0.00 0.00 0.00 31 1017.9
20260506184518 53 45 4.0 0.0 0.00 0.00 0.00 32 1018.2
20260506184032 53 117 4.0 0.0 0.00 0.00 0.00 32 1018.3
20260506183548 52 70 4.0 0.0 0.00 0.00 0.00 32 1018.3
20260506183125 52 124 3.0 0.0 0.00 0.00 0.00 33 1018.4
20260506182512 51 64 3.0 0.0 0.00 0.00 0.00 34 1018.5
20260506182026 50 324 4.0 0.0 0.00 0.00 0.00 32 1018.4
20260506181549 50 340 4.0 0.0 0.00 0.00 0.00 31 1018.6
20260506181100 50 18 4.0 0.0 0.00 0.00 0.00 32 1018.6
20260506180510 50 9 4.0 0.0 0.00 0.00 0.00 31 1018.7
20260506180026 50 52 3.0 0.0 0.00 0.00 0.00 31 1018.8
20260506175542 50 55 3.0 0.0 0.00 0.00 0.00 31 1018.8
20260506175103 49 79 3.0 0.0 0.00 0.00 0.00 31 1018.9
20260506174511 49 52 3.0 0.0 0.00 0.00 0.00 31 1018.9
20260506174028 49 111 3.0 0.0 0.00 0.00 0.00 31 1019.0
20260506173549 48 55 3.0 0.0 0.00 0.00 0.00 29 1019.0
20260506173140 48 94 3.0 0.0 0.00 0.00 0.00 29 1019.0
20260506172514 48 84 3.0 0.0 0.00 0.00 0.00 30 1018.9
20260506172028 47 101 3.0 0.0 0.00 0.00 0.00 30 1019.0
20260506171547 47 91 4.0 0.0 0.00 0.00 0.00 31 1019.1
20260506171004 47 70 4.0 0.0 0.00 0.00 0.00 29 1019.2
20260506170523 46 89 3.0 0.0 0.00 0.00 0.00 28 1019.3
20260506170034 46 285 4.0 0.0 0.00 0.00 0.00 28 1019.1
20260506165548 45 131 4.0 0.0 0.00 0.00 0.00 28 1019.1
20260506165107 45 148 5.0 0.0 0.00 0.00 0.00 31 1019.3
20260506164519 45 90 5.0 0.0 0.00 0.00 0.00 32 1019.3
20260506164033 45 80 5.0 0.0 0.00 0.00 0.00 33 1019.4
20260506163552 45 88 5.0 0.0 0.00 0.00 0.00 34 1019.5
20260506163007 44 198 5.0 0.0 0.00 0.00 0.00 35 1019.4
20260506162523 44 105 6.0 0.0 0.00 0.00 0.00 37 1019.5
20260506162043 43 168 6.0 0.0 0.00 0.00 0.00 41 1019.6
20260506161602 42 186 6.0 0.0 0.00 0.00 0.00 41 1019.6
20260506161016 42 206 6.0 0.0 0.00 0.00 0.00 41 1019.8
20260506160531 41 137 6.0 0.0 0.00 0.00 0.00 41 1019.8
20260506160050 41 180 7.0 0.0 0.00 0.00 0.00 41 1019.8
20260506155502 40 209 7.0 0.0 0.00 0.00 0.00 42 1019.8
20260506155021 40 171 7.0 0.0 0.00 0.00 0.00 43 1019.9
20260506154536 39 187 7.0 0.0 0.00 0.00 0.00 43 1019.9
20260506154056 39 179 8.0 0.0 0.00 0.00 0.00 43 1019.9
20260506153505 39 187 8.0 0.0 0.00 0.00 0.00 43 1019.9
20260506153023 39 211 8.0 0.0 0.00 0.00 0.00 46 1020.0
20260506152539 38 184 9.0 0.0 0.00 0.00 0.00 46 1020.0
20260506152055 38 200 9.0 0.0 0.00 0.00 0.00 45 1020.1
20260506151507 38 194 9.0 0.0 0.00 0.00 0.00 46 1020.2
20260506151025 37 173 10.0 0.0 0.00 0.00 0.00 48 1020.2
20260506150540 37 175 10.0 0.0 0.00 0.00 0.00 50 1020.2
20260506150058 37 155 10.0 0.0 0.00 0.00 0.00 53 1020.2
20260506145505 36 163 10.0 0.0 0.00 0.00 0.00 54 1020.2
20260506145022 36 198 10.0 0.0 0.00 0.00 0.00 56 1020.3
20260506144549 35 170 9.0 0.0 0.00 0.00 0.00 57 1020.4
20260506144054 35 201 9.0 0.0 0.00 0.00 0.00 59 1020.5
20260506143505 34 195 9.0 0.0 0.00 0.00 0.00 63 1020.6
20260506143027 33 173 10.0 0.0 0.00 0.00 0.00 63 1020.6
20260506142541 32 150 11.0 0.0 0.00 0.00 0.00 62 1020.6
20260506142059 32 175 11.0 0.0 0.00 0.00 0.00 62 1020.6
20260506141515 32 164 10.0 0.0 0.00 0.00 0.00 63 1020.6
20260506141034 32 144 9.0 0.0 0.00 0.00 0.00 64 1020.6
20260506140552 32 144 9.0 0.0 0.00 0.00 0.00 67 1020.7
20260506140105 32 155 9.0 0.0 0.00 0.00 0.00 68 1020.7
20260506135516 31 154 9.0 0.0 0.00 0.00 0.00 68 1020.5
20260506135032 31 147 9.0 0.0 0.00 0.00 0.00 69 1020.5
20260506134554 31 169 9.0 0.0 0.00 0.00 0.00 76 1020.5
20260506134106 30 154 9.0 0.0 0.00 0.00 0.00 75 1020.5
20260506133515 28 178 8.0 0.0 0.00 0.00 0.00 75 1020.3
20260506133030 28 171 7.0 0.0 0.00 0.00 0.00 76 1020.3
20260506132545 28 170 6.0 0.0 0.00 0.00 0.00 78 1020.3
20260506132100 27 188 6.0 0.0 0.00 0.00 0.00 79 1020.3
20260506131513 26 200 6.0 0.0 0.00 0.00 0.00 80 1020.3
20260506131030 25 194 7.0 0.0 0.00 0.00 0.00 81 1020.0
20260506130549 25 195 7.0 0.0 0.00 0.00 0.00 82 1020.0
20260506130003 23 212 6.0 0.0 0.00 0.00 0.00 83 1020.2
20260506125518 22 209 6.0 0.0 0.00 0.00 0.00 83 1020.1
20260506125037 21 198 6.0 0.0 0.00 0.00 0.00 83 1019.9
20260506124553 21 200 6.0 0.0 0.00 0.00 0.00 83 1019.9
20260506124010 20 198 6.0 0.0 0.00 0.00 0.00 83 1020.0
20260506123530 20 195 5.0 0.0 0.00 0.00 0.00 82 1019.9
20260506123048 20 194 5.0 0.0 0.00 0.00 0.00 82 1020.1
20260506122504 20 184 5.0 0.0 0.00 0.00 0.00 82 1019.9
20260506122021 20 180 5.0 0.0 0.00 0.00 0.00 83 1019.9
20260506121539 20 181 6.0 0.0 0.00 0.00 0.00 83 1019.9
20260506121059 20 182 6.0 0.0 0.00 0.00 0.00 83 1019.7
20260506120511 20 190 6.0 0.0 0.00 0.00 0.00 83 1019.8
20260506120033 20 193 5.0 0.0 0.00 0.00 0.00 83 1019.8
20260506115553 20 196 5.0 0.0 0.00 0.00 0.00 82 1019.8
20260506115008 20 192 5.0 0.0 0.00 0.00 0.00 83 1019.7
20260506114531 19 196 5.0 0.0 0.00 0.00 0.00 83 1019.8
20260506114053 19 189 4.0 0.0 0.00 0.00 0.00 82 1019.7
20260506113507 19 189 4.0 0.0 0.00 0.00 0.00 83 1019.9
20260506113025 19 189 5.0 0.0 0.00 0.00 0.00 83 1019.8
20260506112548 20 189 6.0 0.0 0.00 0.00 0.00 84 1019.8
20260506112006 19 190 6.0 0.0 0.00 0.00 0.00 83 1019.8
20260506111524 19 198 6.0 0.0 0.00 0.00 0.00 83 1019.7
20260506111046 19 203 6.0 0.0 0.00 0.00 0.00 83 1019.7
20260506110503 18 191 5.0 0.0 0.00 0.00 0.00 83 1019.8
20260506110021 18 184 5.0 0.0 0.00 0.00 0.00 81 1019.8
20260506105542 18 184 5.0 0.0 0.00 0.00 0.00 81 1019.8
20260506105103 19 184 5.0 0.0 0.00 0.00 0.00 82 1019.7
20260506104517 19 181 5.0 0.0 0.00 0.00 0.00 83 1019.7
20260506104034 18 187 5.0 0.0 0.00 0.00 0.00 83 1019.7
20260506103554 18 187 5.0 0.0 0.00 0.00 0.00 84 1019.6
20260506103008 17 184 4.0 0.0 0.00 0.00 0.00 82 1019.6
20260506102528 17 184 4.0 0.0 0.00 0.00 0.00 81 1019.6
20260506102045 18 184 5.0 0.0 0.00 0.00 0.00 80 1019.6
20260506101503 19 184 5.0 0.0 0.00 0.00 0.00 80 1019.6
20260506101020 19 193 5.0 0.0 0.00 0.00 0.00 82 1019.4
20260506100542 19 194 5.0 0.0 0.00 0.00 0.00 83 1019.5
20260506100107 19 192 5.0 0.0 0.00 0.00 0.00 83 1019.4
20260506095518 19 190 5.0 0.0 0.00 0.00 0.00 81 1019.4
20260506095042 19 190 5.0 0.0 0.00 0.00 0.00 82 1019.4
20260506094615 19 189 5.0 0.0 0.00 0.00 0.00 83 1019.3
20260506094016 18 190 4.0 0.0 0.00 0.00 0.00 81 1019.5
20260506093539 18 190 4.0 0.0 0.00 0.00 0.00 80 1019.3
20260506093054 19 192 4.0 0.0 0.00 0.00 0.00 80 1019.4
20260506092505 20 192 4.0 0.0 0.00 0.00 0.00 80 1019.4
20260506092023 20 192 4.0 0.0 0.00 0.00 0.00 79 1019.5
20260506091543 21 192 4.0 0.0 0.00 0.00 0.00 79 1019.6
20260506091100 21 192 4.0 0.0 0.00 0.00 0.00 80 1019.5
20260506090511 21 195 5.0 0.0 0.00 0.00 0.00 79 1019.5
20260506090030 21 200 5.0 0.0 0.00 0.00 0.00 79 1019.5
20260506085547 21 199 5.0 0.0 0.00 0.00 0.00 79 1019.3
20260506085003 21 183 5.0 0.0 0.00 0.00 0.00 80 1019.4
20260506084532 21 183 5.0 0.0 0.00 0.00 0.00 77 1019.3
20260506084044 21 183 5.0 0.0 0.00 0.00 0.00 75 1019.3
20260506083604 22 183 5.0 0.0 0.00 0.00 0.00 77 1019.3
20260506083024 22 184 5.0 0.0 0.00 0.00 0.00 76 1019.2
20260506082541 22 183 5.0 0.0 0.00 0.00 0.00 76 1019.2
20260506082059 23 190 5.0 0.0 0.00 0.00 0.00 73 1019.2
20260506081516 24 190 4.0 0.0 0.00 0.00 0.00 72 1019.2
20260506081033 25 180 3.0 0.0 0.00 0.00 0.00 72 1019.3
20260506080551 25 43 3.0 0.0 0.00 0.00 0.00 71 1019.1
20260506073108 26 43 3.0 0.0 0.00 0.00 0.00 71 1019.1
20260506072522 26 43 3.0 0.0 0.00 0.00 0.00 70 1019.0
20260506072038 27 43 3.0 0.0 0.00 0.00 0.00 70 1019.0
20260506071601 27 43 4.0 0.0 0.00 0.00 0.00 71 1019.1
20260506071010 26 43 4.0 0.0 0.00 0.00 0.00 72 1019.0
20260506070529 26 43 3.0 0.0 0.00 0.00 0.00 72 1019.0
20260506062004 26 39 4.0 0.0 0.00 0.00 0.00 72 1018.6
20260506061527 27 37 4.0 0.0 0.00 0.00 0.00 70 1018.5
20260506061042 27 37 5.0 0.0 0.00 0.00 0.00 70 1018.4
20260506060601 28 39 5.0 0.0 0.00 0.00 0.00 68 1018.3
20260506051010 33 323 12.0 0.0 0.00 0.00 0.00 62 1017.4
20260506050537 33 322 11.0 0.0 0.00 0.00 0.00 62 1017.3
20260506045036 33 321 12.0 0.0 0.00 0.00 0.00 64 1017.4
20260506044603 33 315 13.0 0.0 0.00 0.00 0.00 64 1017.4
20260506044017 33 325 13.0 0.0 0.00 0.00 0.00 64 1017.4
20260506043537 33 319 13.0 0.0 0.00 0.00 0.00 64 1017.4
20260506043059 34 315 14.0 0.0 0.00 0.00 0.00 64 1017.4
20260506042509 34 323 15.0 0.0 0.00 0.00 0.00 64 1017.4
20260506042035 34 304 15.0 0.0 0.00 0.00 0.00 64 1017.4
20260506041556 34 328 15.0 0.0 0.00 0.00 0.00 65 1017.4
20260506041007 34 305 16.0 0.0 0.00 0.00 0.00 65 1017.1
20260506040527 34 313 17.0 0.0 0.00 0.00 0.00 66 1017.2
20260506040042 34 322 16.0 0.0 0.00 0.00 0.00 66 1017.1
20260506035502 34 317 15.0 0.0 0.00 0.00 0.00 67 1017.1
20260506035027 34 326 16.0 0.0 0.00 0.00 0.00 67 1017.2
20260506034551 34 312 17.0 0.0 0.00 0.00 0.00 67 1017.0
20260506034003 34 316 18.0 0.0 0.00 0.00 0.00 67 1016.9
20260506033521 34 317 19.0 0.0 0.00 0.00 0.00 67 1016.8
20260506033042 34 329 20.0 0.0 0.00 0.00 0.00 68 1016.7
20260506032502 34 319 21.0 0.0 0.00 0.00 0.00 66 1016.6
20260506032022 35 320 22.0 0.0 0.00 0.00 0.00 65 1016.5
20260506031540 35 328 21.0 0.0 0.00 0.00 0.00 66 1016.4
20260506031102 35 327 20.0 0.0 0.00 0.00 0.00 67 1016.3
20260506030518 34 320 18.0 0.0 0.00 0.00 0.00 67 1016.2
20260506030035 34 302 19.0 0.0 0.00 0.00 0.00 67 1016.0
20260506025554 34 311 19.0 0.0 0.00 0.00 0.00 68 1016.0
20260506025008 35 298 20.0 0.0 0.00 0.00 0.00 67 1015.7
20260506024527 35 317 20.0 0.0 0.00 0.00 0.00 67 1015.4
20260506024046 35 327 19.0 0.0 0.00 0.00 0.00 67 1015.4
20260506023507 35 328 21.0 0.0 0.00 0.00 0.00 65 1015.3
20260506023026 35 325 20.0 0.0 0.00 0.00 0.00 65 1015.3
20260506022544 35 339 21.0 0.0 0.00 0.00 0.00 66 1015.0
20260506022006 36 338 22.0 0.0 0.00 0.00 0.00 66 1014.8
20260506021526 36 331 21.0 0.0 0.00 0.00 0.00 63 1014.7
20260506021043 36 338 21.0 0.0 0.00 0.00 0.00 62 1014.7
20260506020601 37 334 23.0 0.0 0.00 0.00 0.00 61 1014.5
20260506020013 37 323 25.0 0.0 0.00 0.00 0.00 60 1014.4
20260506015536 37 328 25.0 0.0 0.00 0.00 0.00 59 1014.3
20260506015054 37 329 25.0 0.0 0.00 0.00 0.00 59 1014.3
20260506014507 37 323 24.0 0.0 0.00 0.00 0.00 58 1014.1
20260506014031 37 323 24.0 0.0 0.00 0.00 0.00 57 1013.8
20260506013550 38 325 24.0 0.0 0.00 0.00 0.00 57 1013.8
20260506013002 38 302 24.0 0.0 0.00 0.00 0.00 55 1013.9
20260506012519 38 331 24.0 0.0 0.00 0.00 0.00 52 1013.8
20260506012036 39 331 23.0 0.0 0.00 0.00 0.00 51 1013.7
20260506011620 39 329 22.0 0.0 0.00 0.00 0.00 51 1013.7
20260506011005 39 325 22.0 0.0 0.00 0.00 0.00 49 1013.7
20260506010524 39 314 21.0 0.0 0.00 0.00 0.00 48 1013.6
20260506010043 40 320 20.0 0.0 0.00 0.00 0.00 48 1013.4
20260506005503 39 321 20.0 0.0 0.00 0.00 0.00 51 1013.6
20260506005020 39 311 22.0 0.0 0.00 0.00 0.00 52 1013.2
20260506004543 40 336 23.0 0.0 0.00 0.00 0.00 49 1012.9
20260506004054 40 312 23.0 0.0 0.00 0.00 0.00 49 1012.8
20260506003505 40 314 23.0 0.0 0.00 0.00 0.00 47 1012.7
20260506003022 41 332 22.0 0.0 0.00 0.00 0.00 47 1012.7
20260506002540 41 336 21.0 0.0 0.00 0.00 0.00 47 1012.4
20260506002105 41 323 22.0 0.0 0.00 0.00 0.00 48 1012.6
20260506001518 41 318 24.0 0.0 0.00 0.00 0.00 49 1012.4
20260506001041 41 321 24.0 0.0 0.00 0.00 0.00 48 1012.4
20260506000600 41 316 23.0 0.0 0.00 0.00 0.00 48 1012.3
20260506000010 41 331 23.0 0.0 0.00 0.00 0.00 47 1012.2
20260505235526 42 304 23.0 0.0 0.00 0.00 0.00 47 1012.2
20260505235055 42 325 23.0 0.0 0.00 0.00 0.00 47 1012.2
20260505234514 42 331 22.0 0.0 0.00 0.00 0.00 44 1012.1
20260505234038 42 300 21.0 0.0 0.00 0.00 0.00 47 1012.2
20260505233555 42 323 21.0 0.0 0.00 0.00 0.00 46 1012.2
20260505233017 42 328 21.0 0.0 0.00 0.00 0.00 46 1012.3
20260505232531 43 333 21.0 0.0 0.00 0.00 0.00 44 1012.2
20260505232050 43 333 22.0 0.0 0.00 0.00 0.00 44 1012.0
20260505231505 43 329 22.0 0.0 0.00 0.00 0.00 47 1012.2
20260505231030 43 325 22.0 0.0 0.00 0.00 0.00 46 1012.0
20260505230555 43 331 22.0 0.0 0.00 0.00 0.00 47 1011.9
20260505230012 43 319 23.0 0.0 0.00 0.00 0.00 45 1011.9
20260505225529 43 325 23.0 0.0 0.00 0.00 0.00 46 1012.0
20260505225053 43 331 24.0 0.0 0.00 0.00 0.00 45 1011.9
20260505224510 44 328 22.0 0.0 0.00 0.00 0.00 43 1011.7
20260505224025 44 325 20.0 0.0 0.00 0.00 0.00 42 1011.4
20260505223546 44 311 21.0 0.0 0.00 0.00 0.00 44 1011.8
20260505223010 44 318 20.0 0.0 0.00 0.00 0.00 44 1011.9
20260505222528 44 310 20.0 0.0 0.00 0.00 0.00 43 1011.8
20260505222049 44 340 20.0 0.0 0.00 0.00 0.00 41 1011.8
20260505221512 44 327 20.0 0.0 0.00 0.00 0.00 42 1011.8
20260505221030 44 336 19.0 0.0 0.00 0.00 0.00 40 1012.0
20260505220549 44 325 19.0 0.0 0.00 0.00 0.00 39 1011.8
20260505220013 44 341 19.0 0.0 0.00 0.00 0.00 38 1011.9
20260505215528 44 340 19.0 0.0 0.00 0.00 0.00 38 1011.9
20260505215053 44 331 20.0 0.0 0.00 0.00 0.00 39 1011.8
20260505214511 44 311 20.0 0.0 0.00 0.00 0.00 38 1011.7
20260505214026 44 304 19.0 0.0 0.00 0.00 0.00 38 1011.9
20260505213544 45 322 19.0 0.0 0.00 0.00 0.00 39 1011.8
20260505213003 45 342 18.0 0.0 0.00 0.00 0.00 37 1011.8
20260505212523 45 333 18.0 0.0 0.00 0.00 0.00 37 1011.9
20260505212042 45 319 18.0 0.0 0.00 0.00 0.00 37 1011.7